User: anonymous   Login
Location: Columbus
(29.5618°N, 96.6770°W)
Time: 12:21:57
(UTC-06:00)
Language:

Cosmos 2056 Rocket - Orbit

View from above orbital plane
View from above orbital plane
View from above satellite
View from above satellite

Ground track
Ground track

The orbit data is extracted from the following two-line orbital elements,

1 20433U 90004B   14351.64031244  .00000357  00000-0  13131-3 0  8922
2 20433 074.0354 231.1756 0041786 224.1088 162.6560 14.35740431304222
Epoch (UTC): 17 December 2014 15:22:02
Eccentricity: 0.0041786
inclination: 74.0354°
perigee height: 743 km
apogee height: 802 km
right ascension of ascending node: 231.1756°
argument of perigee: 224.1088°
revolutions per day: 14.35740431
mean anomaly at epoch: 162.6560°
orbit number at epoch: 30422

The dashed part of the orbit path shows where the satellite is in the earth's shadow,  

DLR